Location: ????????
(56.1167°N, 38.6333°E)
Time: 22:27:44
(UTC+00:00)

Cosmos 2016 Rocket - Pass Details

Date: 18 November 2025
Orbit: 947 x 999 km, 83.0° (Epoch: 06 December)

Event Time Altitude Azimuth Distance (km) Brightness Sun altitude
Rises 14:40:43 0° 196° (SSW) 3,686 7.5 -11.9°
Reaches altitude 10° 14:43:13 10° 198° (SSW) 2,748 6.9 -12.3°
Maximum altitude 14:49:33 74° 284° (WNW) 1,040 4.3 -13.1°
Drops below altitude 10° 14:55:57 10° 10° (N) 2,783 6.2 -14.0°
Sets 14:58:31 0° 12° (NNE) 3,737 6.8 -14.3°
